Vereeniging, South Africa

8:07 AM SAST on August 26, 2016 (GMT +0200)
Vereeniging

Weather History for FAVV - May, 2013

Change the Weather History Date:

Sunday, May 26, 2013

  Actual Average Record
Temperature  
Mean Temperature 56 °F -  
Max Temperature 75 °F - - ()
Min Temperature 36 °F - - ()
Degree Days  
Heating Degree Days 10    
Growing Degree Days 6 (Base 50)    
Moisture  
Dew Point 29 °F    
Average Humidity 41    
Maximum Humidity 81    
Minimum Humidity 6    
Precipitation  
Precipitation 0.00 in - - ()
Sea Level Pressure  
Sea Level Pressure 30.18 in    
Wind  
Wind Speed 5 mph ()    
Max Wind Speed 17 mph    
Max Gust Speed 30 mph    
T = Trace of Precipitation, MM = Missing Value Source: Averaged Metar Reports

Daily Weather History Graph

Daily Weather History Graph

Search for Another Location

Airport or City:

Trip Planner

Search our weather history database for the weather conditions in past years. The results will help you decide how hot, cold, wet, or windy it might be!

Date:

Astronomy

May. 26, 2013 Rise Set
Actual Time 6:45 AM SAST 5:24 PM SAST
Civil Twilight 6:20 AM SAST 5:49 PM SAST
Nautical Twilight 5:52 AM SAST 6:17 PM SAST
Astronomical Twilight 5:24 AM SAST 6:45 PM SAST
Moon 6:57 PM SAST 7:52 AM SAST
Length of Visible Light 11h 28m
Length of Day
10h 38m
Full, 98% of the Moon is Illuminated
May 26
Full
May 31
Last Quarter
Jun 8
New
Jun 16
First Quarter
Jun 23
Full

Hourly Weather History & Observations

Time (SAST) Temp. Windchill Dew Point Humidity Pressure Visibility Wind Dir Wind Speed Gust Speed Precip Events Conditions
12:00 AM 41.0 °F 39.0 °F 32.0 °F 70% 30.27 in - NNE 3.5 mph - N/A   Unknown
1:00 AM 41.0 °F 39.0 °F 32.0 °F 70% 30.27 in - NNW 3.5 mph - N/A   Unknown
2:00 AM 40 °F - 31 °F 59%  in - NNW 5.8 mph - -  
2:00 AM 39.2 °F 35.9 °F 32.0 °F 75% 30.24 in - NNW 4.6 mph - N/A   Unknown
3:00 AM 39.2 °F 37.0 °F 32.0 °F 75% 30.24 in - North 3.5 mph - N/A   Unknown
4:00 AM 39.2 °F 33.0 °F 30.2 °F 70% 30.24 in - NE 9.2 mph 25.3 mph N/A   Unknown
5:00 AM 37.4 °F 27.8 °F 30.2 °F 75% 30.24 in - WNW 17.3 mph 29.9 mph N/A   Unknown
6:00 AM 37.4 °F 32.8 °F 30.2 °F 75% 30.21 in - NNW 5.8 mph - N/A   Unknown
7:00 AM 35.6 °F 32.8 °F 30.2 °F 81% 30.21 in - North 3.5 mph - N/A   Unknown
8:00 AM 49 °F - 37 °F 52%  in - NE 5.8 mph - -  
8:00 AM 48.2 °F - 35.6 °F 62% 30.24 in - NE 4.6 mph 21.9 mph N/A   Unknown
9:00 AM 62.6 °F - 35.6 °F 37% 30.24 in - ESE 1.2 mph - N/A   Unknown
10:00 AM 68.0 °F - 30.2 °F 24% 30.24 in - WNW 2.3 mph - N/A   Unknown
11:00 AM 69.8 °F - 26.6 °F 20% 30.21 in - WSW 4.6 mph 21.9 mph N/A   Unknown
12:00 PM 71.6 °F - 26.6 °F 19% 30.18 in - SW 4.6 mph - N/A   Unknown
1:00 PM 73.4 °F - 26.6 °F 18% 30.15 in - ENE 4.6 mph 23.0 mph N/A   Unknown
2:00 PM 74 °F - 21 °F 6%  in - West 5.8 mph - -  
2:00 PM 73.4 °F - 21.2 °F 14% 30.12 in - West 4.6 mph - N/A   Unknown
3:00 PM 73.4 °F - 21.2 °F 14% 30.09 in - West 2.3 mph 19.6 mph N/A   Unknown
4:00 PM 73.4 °F - 21.2 °F 14% 30.09 in - WNW 4.6 mph - N/A   Unknown
5:00 PM 71.6 °F - 21.2 °F 15% 30.09 in - WNW 3.5 mph - N/A   Unknown
6:00 PM 57.2 °F - 26.6 °F 31% 30.09 in - Calm Calm - N/A   Unknown
7:00 PM 59.0 °F - 30.2 °F 34% 30.12 in - NW 5.8 mph - N/A   Unknown
8:00 PM 58 °F - 28 °F 20%  in - NW 8.1 mph - -  
8:00 PM 57.2 °F - 28.4 °F 33% 30.15 in - NW 6.9 mph - N/A   Unknown
9:00 PM 57.2 °F - 28.4 °F 33% 30.15 in - NW 8.1 mph - N/A   Unknown
10:00 PM 55.4 °F - 26.6 °F 33% 30.15 in - NW 8.1 mph - N/A   Unknown
11:00 PM 55.4 °F - 26.6 °F 33% 30.15 in - NW 8.1 mph - N/A   Unknown